Regional Weather Roundup
Issued by NWS

Home | Current Version | Previous Version | Text Only | Print | Product List | Glossary On
Versions: 1 2 3 4 5 6 7 8 9 10 11 12 13 14 15 16 17 18 19 20 21 22 23 24 25 26 27 28 29 30 31 32 33 34 35 36 37 38 39 40 41 42 43 44 45 46 47 48 49 50
000
ASUS44 KLUB 010810
RWRTX
WEST TEXAS WEATHER ROUNDUP
NATIONAL WEATHER SERVICE LUBBOCK TX
300 AM CDT TUE SEP 01 2015

NOTE: "FAIR" INDICATES FEW OR NO CLOUDS BELOW 12,000 FEET WITH NO
SIGNIFICANT WEATHER AND/OR OBSTRUCTIONS TO VISIBILITY.

TXZ004-006>008-010-012-014-016-OKZ002-010900-
TEXAS PANHANDLE/OKLAHOMA PANHANDLE

CITY           SKY/WX    TMP DP  RH WIND       PRES   REMARKS
AMARILLO       CLEAR     72  54  53 S16       30.05F
BORGER         PTCLDY    73  54  51 S9        30.02F
CANADIAN       CLEAR     75  63  64 S16G23    29.99F
DALHART        CLOUDY    72  51  47 S5        30.08S
DUMAS          PTCLDY    65  54  66 CALM      30.07S
GUYMON         PTCLDY    71  52  50 S9        30.00F
HEREFORD       PTCLDY    67  55  67 SW5       30.07S
PAMPA          CLEAR     68  57  67 SE7       30.05S
PERRYTON       PTCLDY    71  57  61 S9        30.03S
$$

TXZ026-029-035-045-048-010900-
SOUTHERN PANHANDLE/SOUTH PLAINS/ROLLING PLAINS

CITY           SKY/WX    TMP DP  RH WIND       PRES   REMARKS
CHILDRESS      CLEAR     75  60  59 S9        29.99F
SEMINOLE       CLEAR     69  53  56 S8        30.05S
LUBBOCK        PTCLDY    70  55  59 SE9       30.04F
PLAINVIEW      CLEAR     69  56  62 S7        30.04F
SNYDER         CLEAR     75  56  51 SE10      30.03S
$$

TXZ052-054-060>062-072-078-127-140-154-169-010900-
PERMIAN BASIN/CONCHO VALLEY/BIG COUNTRY/EDWARDS PLATEAU

CITY           SKY/WX    TMP DP  RH WIND       PRES   REMARKS
ABILENE        CLEAR     76  62  62 S13       30.02S
BIG SPRING     CLEAR     75  56  51 SE10      30.04F
BRADY          CLEAR     75  66  73 S7        30.04F
JUNCTION       CLEAR     75  67  76 S8        30.05S
MIDLAND        CLEAR     73  55  53 S7        30.02F
ODESSA         CLEAR     75  53  46 S8        30.03F
SAN ANGELO     CLEAR     77  64  64 S14       30.01S
SONORA         CLEAR     75  66  73 S17       30.09F
SWEETWATER     CLEAR     76  56  50 SE12      30.05S
WINK           CLEAR     75  54  47 SE9       29.99F
$$

TXZ055-058-074-075-080-082-010900-
FAR WEST/SOUTHWEST MOUNTAINS/TRANS PECOS

CITY           SKY/WX    TMP DP  RH WIND       PRES   REMARKS
ALPINE         PTCLDY    67  52  57 S6        30.16S
DRYDEN           N/A     78  63  59 E10G17    29.99S
EL PASO        PTCLDY    78  45  30 SE7       30.02S
FORT STOCKTON  CLEAR     76  55  48 SE13      30.01F
GUADALUPE PASS CLEAR     75  42  30 NE7       30.17F
MARFA          PTCLDY    57  45  62 NW9       30.14F
PECOS          CLEAR     76  54  46 E10       29.97F
$$

TXZ014-016-019-021>030-083-010900
TEXAS TECH WEST TEXAS MESONET/TEXAS PANHANDLE/NORTHERN SOUTH PLAINS

CITY           SKY/WX    TMP DP  RH WIND       PRES   REMARKS
ABERNATHY 5ENE   N/A     65  54  69 SE7       30.05F
AMARILLO 9NNE    N/A     69  55  61 S9        30.03F
AMARILLO 7SSE    N/A     67  55  64 S9        30.06F
AMHERST 1NE      N/A     62  53  74 S3        30.06S
BOOTLEG 11WNW    N/A     66  51  59 S8        30.10F
CANADIAN 6E      N/A     72  62  70 SE9       30.00S
CAPROCK CYN SP   N/A     69  58  65 S7        30.02F
CHILDRESS 2NNE   N/A     73  60  62 SE10      29.99S
CLARENDON 2WSW   N/A     70  56  59 SE10      30.03S
CLAUDE 12SW      N/A     74  54  50 S8        30.05F
DIMMITT 2NE      N/A     63  53  67 S9        30.06F
FLOYDADA 2NNE    N/A     64  53  68 SE6       30.04F
FRIONA 2NE       N/A     64  53  66 S6        30.08S
GOODLETT 3W      N/A     75  59  57 SE6       29.98S
HART 3N          N/A     63  55  75 S5        30.06F
HEREFORD 2NW     N/A     66  51  58 S6        30.06F
MCLEAN 1E        N/A     66  56  71 SE6       30.03S
MEMPHIS 1NE      N/A     67  58  73 E3        29.99F
MULESHOE 2SSW    N/A     66  53  63 SW2       30.06S
OLTON 6S         N/A     64  54  71 SE8       30.05F
PALO DURO SP     N/A     72  54  54 S5        30.06F
PAMPA 2E         N/A     66  57  71 SE9       30.05S
PLAINVIEW 1S     N/A     68  56  65 SE6       30.04F
SILVERTON 7ESE   N/A     72  56  57 S9        30.05S
TULIA 2ENE       N/A     62  56  81 S6        30.05F
TURKEY 2WSW      N/A     69  58  68 S3        30.00F
UMBARGER 3NNE    N/A     66  54  63 S8        30.06F
$$

TXZ033>036-039>041-045>048-010900
TEXAS TECH WEST TEXAS MESONET/SOUTH PLAINS

CITY           SKY/WX    TMP DP  RH WIND       PRES   REMARKS
AIKEN 3WSW       N/A     64  56  75 SE6       30.06F
ANDREWS 2NE      N/A     72  53  50 S9        30.03F
ANTON 6SSW       N/A     62  54  74 SE2       30.04F
BROWNFIELD 2S    N/A     63  54  72 SE6       30.04F
DENVR CTY 7WNW   N/A     64  53  67 S6        30.05F
GAIL 2ESE        N/A     67  56  66 SE3       30.01F
LAMESA 2SE       N/A     69  55  62 SE7       30.04S
LEVELLAND 4S     N/A     63  53  70 SE5       30.05F
LUBBOCK 3WNW     N/A     72  52  50 SE7       30.04F
MORTON 1ENE      N/A     64  54  68 S6        30.06S
ODONNELL 1N      N/A     69  52  54 SE7       30.04S
PLAINS 3N        N/A     65  51  60 S7        30.06S
RALLS 1SE        N/A     65  53  64 SE6       30.05F
REESE CENTER     N/A     66  52  61 S7        30.04F
SEAGRAVES 1SW    N/A     60  53  77 SW3       30.04F
SEMINOLE 2NNE    N/A     71  53  52 S9        30.04S
SLATON 2NE       N/A     67  54  61 SE6       30.04S
SNYDER 3E        N/A     74  56  52 SE10      30.02S
SUNDOWN 8SW      N/A     62  53  72 SW7       30.06S
TAHOKA 3NNE      N/A     63  53  70 SE8       30.04S
WOLFFORTH 6SSW   N/A     64  53  66 SE5       30.04F
$$

TXZ031-032-036>038-042>044-010900-
TEXAS TECH WEST TEXAS MESONET/ROLLING PLAINS

CITY           SKY/WX    TMP DP  RH WIND       PRES   REMARKS
ASPERMONT 3NE    N/A     75  58  55 SE8       29.99F
FLUVANNA 3WNW    N/A     72  55  54 SE9       30.03S
GRAHAM 5SSW      N/A     72  54  51 SE7       30.04S
GUTHRIE 10WSW    N/A     74  57  56 SE9       29.99S
HASKELL 1NW      N/A     75  58  54 SE7       29.99S
JAYTON 1SSE      N/A     75  57  52 SE7       29.99F
KNOX CITY 3NW    N/A     76  58  52 SE12      29.98S
LK A HENRY 1NW   N/A     75  56  51 S8        30.00S
ODELL 4ENE       N/A     76  62  62 SE12      29.99S
POST 1NE         N/A     74  54  49 S7        30.02S
RRING SPRGS 3N   N/A     68  58  69 S7        30.02S
SEYMOUR 3NW      N/A     77  61  56 SE10      29.98S
SPUR 1W          N/A     67  55  63 CALM      30.00S
WEINERT 2NNE     N/A     76  60  58 SE10      30.00R
WHITE RVR 6NE    N/A     71  54  53 E6        30.03S
$$

TXZ052-054-060>062-072-078-127-140-154-169-010900-
TEXAS TECH WEST TEXAS MESONET/PERMIAN BASIN/
CONCHO VALLEY/BIG COUNTRY/EDWARDS PLATEAU

CITY           SKY/WX    TMP DP  RH WIND       PRES   REMARKS
JUNCTION 1SSW    N/A     74  67  79 S7        30.05F
MERTZON 3NNE     N/A     75  63  66 S12       30.03F
SAN ANGELO 7NW   N/A     76  60  56 S9        30.03S
STRLNG CT 4WSW   N/A     76  57  52 SE8       30.04S
ST LAWRNCE 5SW   N/A     74  56  53 S9        30.03S
SWEETWATR 11SW   N/A     74  57  55 S13       30.05S
WALL 1E          N/A     77  63  61 SE15      30.02S
$$

TXZ055-058-074-075-080-082-010900-
TEXAS TECH WEST TEXAS MESONET/FAR WEST/SOUTHWEST MOUNTAINS/TRANS PECOS

CITY           SKY/WX    TMP DP  RH WIND       PRES   REMARKS
PRSMN GAP BBNP   N/A     79  55  43 N9        30.00F
$$



USA.gov is the U.S. government's official web portal to all federal, state and local government web resources and services.